When you browse on this site, cookies collect data to enhance your experience and personalize the content and advertising you see.
Visit our Privacy Policy to learn more. By continuing to use the site, you agree to this use of cookies and data.
  • In Österreich
  • Länderverzeichnis
  • Für 7 Tage
  • Wassertemperatur
  • Wetterkarte
  • News
  • Widgets
  • user-avatar
    Anmelden

    Stündliche Wetter Surat Thani

    Heute, 12 November, Dienstag

    Zeit Temperatur Niederschläge Wind Luftdruck Luftfeuchtigkeit
    00:00 +25°C° 0 mm 1 m/S 751 mmHg 85%
    01:00 +22°C° 0 mm 0 m/S 751 mmHg 85%
    02:00 +22°C° 0 mm 0 m/S 750 mmHg 86%
    03:00 +22°C° 0 mm 0 m/S 750 mmHg 87%
    04:00 +22°C° 0 mm 0 m/S 750 mmHg 88%
    05:00 +22°C° 0 mm 0 m/S 750 mmHg 88%
    06:00 +22°C° 0 mm 0 m/S 751 mmHg 88%
    07:00 +23°C° 0 mm 0 m/S 751 mmHg 89%
    08:00 +25°C° 0 mm 0 m/S 751 mmHg 81%
    09:00 +29°C° 0 mm 1 m/S 752 mmHg 73%
    10:00 +31°C° 0 mm 1 m/S 752 mmHg 64%
    11:00 +32°C° 0 mm 1 m/S 752 mmHg 60%
    12:00 +32°C° 0 mm 2 m/S 751 mmHg 56%
    13:00 +34°C° 0 mm 2 m/S 751 mmHg 52%
    14:00 +34°C° 0 mm 2 m/S 750 mmHg 54%
    15:00 +32°C° 0 mm 2 m/S 750 mmHg 56%
    16:00 +32°C° 0 mm 2 m/S 749 mmHg 58%
    17:00 +30°C° 0 mm 2 m/S 750 mmHg 65%
    18:00 +28°C° 0 mm 2 m/S 750 mmHg 72%
    19:00 +27°C° 0 mm 1 m/S 750 mmHg 79%
    20:00 +26°C° 0 mm 1 m/S 751 mmHg 81%
    21:00 +26°C° 0 mm 1 m/S 752 mmHg 82%
    22:00 +26°C° 0 mm 1 m/S 753 mmHg 84%
    23:00 +23°C° 0 mm 0 m/S 752 mmHg 85%

    Morgen, 13 November, Mittwoch

    Zeit Temperatur Niederschläge Wind Luftdruck Luftfeuchtigkeit
    00:00 +23°C° 0 mm 0 m/S 752 mmHg 85%
    01:00 +23°C° 0 mm 0 m/S 751 mmHg 86%
    02:00 +23°C° 0 mm 0 m/S 751 mmHg 87%
    03:00 +22°C° 0 mm 0 m/S 751 mmHg 87%
    04:00 +22°C° 0 mm 0 m/S 750 mmHg 88%
    05:00 +22°C° 0 mm 0 m/S 751 mmHg 88%
    06:00 +23°C° 0 mm 0 m/S 751 mmHg 88%
    07:00 +23°C° 0 mm 0 m/S 752 mmHg 87%
    08:00 +25°C° 0 mm 0 m/S 752 mmHg 80%
    09:00 +29°C° 0 mm 1 m/S 753 mmHg 73%
    10:00 +31°C° 0 mm 1 m/S 753 mmHg 65%
    11:00 +31°C° 0 mm 2 m/S 752 mmHg 63%
    12:00 +32°C° 0 mm 2 m/S 752 mmHg 60%
    13:00 +34°C° 0 mm 2 m/S 751 mmHg 57%
    14:00 +33°C° 0 mm 3 m/S 750 mmHg 61%
    15:00 +33°C° 0 mm 3 m/S 750 mmHg 64%
    16:00 +31°C° 0 mm 3 m/S 749 mmHg 68%
    17:00 +30°C° 0 mm 3 m/S 750 mmHg 73%
    18:00 +28°C° 0 mm 2 m/S 750 mmHg 78%
    19:00 +27°C° 0 mm 2 m/S 751 mmHg 83%
    20:00 +27°C° 0 mm 2 m/S 751 mmHg 84%
    21:00 +26°C° 0 mm 1 m/S 752 mmHg 85%
    22:00 +26°C° 0 mm 1 m/S 753 mmHg 86%
    23:00 +26°C° 0 mm 1 m/S 752 mmHg 87%

    übermorgen, 14 November, Donnerstag

    Zeit Temperatur Niederschläge Wind Luftdruck Luftfeuchtigkeit
    00:00 +25°C° 0 mm 1 m/S 752 mmHg 88%
    01:00 +25°C° 0 mm 1 m/S 751 mmHg 89%
    02:00 +23°C° 0 mm 0 m/S 751 mmHg 90%
    03:00 +23°C° 0 mm 0 m/S 751 mmHg 91%
    04:00 +23°C° 0 mm 0 m/S 750 mmHg 92%
    05:00 +23°C° 0 mm 0 m/S 751 mmHg 92%
    06:00 +23°C° 0 mm 0 m/S 751 mmHg 91%
    07:00 +24°C° 0 mm 0 m/S 751 mmHg 90%
    08:00 +27°C° 0 mm 1 m/S 752 mmHg 84%
    09:00 +29°C° 0 mm 1 m/S 752 mmHg 77%
    10:00 +31°C° 0 mm 1 m/S 752 mmHg 71%
    11:00 +32°C° 0.1 mm 2 m/S 752 mmHg 68%
    12:00 +32°C° 0.1 mm 2 m/S 751 mmHg 65%
    13:00 +34°C° 0.1 mm 2 m/S 750 mmHg 62%
    14:00 +32°C° 1.2 mm 2 m/S 750 mmHg 66%
    15:00 +32°C° 1.2 mm 2 m/S 749 mmHg 70%
    16:00 +31°C° 1.2 mm 3 m/S 748 mmHg 74%
    17:00 +30°C° 0.8 mm 2 m/S 749 mmHg 78%
    18:00 +28°C° 0.8 mm 2 m/S 750 mmHg 82%
    19:00 +27°C° 0.8 mm 2 m/S 750 mmHg 87%
    20:00 +27°C° 0 mm 2 m/S 751 mmHg 88%
    21:00 +26°C° 0 mm 1 m/S 751 mmHg 89%
    22:00 +26°C° 0 mm 1 m/S 752 mmHg 90%
    23:00 +26°C° 0 mm 1 m/S 751 mmHg 90%

    15 November, Freitag

    Zeit Temperatur Niederschläge Wind Luftdruck Luftfeuchtigkeit
    00:00 +26°C° 0 mm 1 m/S 751 mmHg 91%
    01:00 +24°C° 0 mm 0 m/S 751 mmHg 92%
    02:00 +23°C° 0 mm 0 m/S 750 mmHg 92%
    03:00 +23°C° 0 mm 0 m/S 750 mmHg 92%
    04:00 +23°C° 0 mm 0 m/S 749 mmHg 93%
    05:00 +23°C° 0 mm 0 m/S 750 mmHg 92%
    06:00 +24°C° 0 mm 0 m/S 750 mmHg 92%
    07:00 +24°C° 0 mm 0 m/S 751 mmHg 92%
    08:00 +28°C° 0 mm 1 m/S 751 mmHg 84%
    09:00 +29°C° 0 mm 2 m/S 751 mmHg 76%
    10:00 +31°C° 0 mm 3 m/S 752 mmHg 68%
    11:00 +33°C° 0 mm 4 m/S 751 mmHg 65%
    12:00 +33°C° 0 mm 4 m/S 750 mmHg 61%
    13:00 +34°C° 0 mm 5 m/S 750 mmHg 58%
    14:00 +33°C° 0 mm 5 m/S 749 mmHg 59%
    15:00 +33°C° 0 mm 5 m/S 749 mmHg 60%
    16:00 +33°C° 0 mm 4 m/S 748 mmHg 61%
    17:00 +30°C° 0 mm 4 m/S 749 mmHg 66%
    18:00 +28°C° 0 mm 3 m/S 749 mmHg 71%
    19:00 +27°C° 0 mm 2 m/S 750 mmHg 76%
    20:00 +26°C° 0 mm 2 m/S 750 mmHg 78%
    21:00 +26°C° 0 mm 2 m/S 751 mmHg 81%
    22:00 +26°C° 0 mm 2 m/S 751 mmHg 83%
    23:00 +25°C° 0 mm 1 m/S 751 mmHg 84%

    16 November, Samstag

    Zeit Temperatur Niederschläge Wind Luftdruck Luftfeuchtigkeit
    00:00 +25°C° 0 mm 1 m/S 751 mmHg 86%
    01:00 +25°C° 0 mm 1 m/S 750 mmHg 87%
    02:00 +25°C° 0 mm 1 m/S 750 mmHg 88%
    03:00 +25°C° 0 mm 1 m/S 750 mmHg 89%
    04:00 +25°C° 0 mm 1 m/S 749 mmHg 90%
    05:00 +25°C° 0 mm 1 m/S 750 mmHg 90%
    06:00 +25°C° 0 mm 1 m/S 750 mmHg 90%
    07:00 +25°C° 0 mm 1 m/S 751 mmHg 90%
    08:00 +27°C° 0 mm 1 m/S 751 mmHg 82%
    09:00 +29°C° 0 mm 2 m/S 751 mmHg 74%
    10:00 +31°C° 0 mm 2 m/S 752 mmHg 67%
    11:00 +31°C° 0 mm 2 m/S 751 mmHg 65%
    12:00 +33°C° 0 mm 3 m/S 750 mmHg 63%
    13:00 +34°C° 0 mm 3 m/S 750 mmHg 62%
    14:00 +33°C° 0.5 mm 3 m/S 750 mmHg 66%
    15:00 +31°C° 0.5 mm 3 m/S 749 mmHg 70%
    16:00 +31°C° 0.5 mm 3 m/S 749 mmHg 74%
    17:00 +29°C° 0.5 mm 3 m/S 749 mmHg 79%
    18:00 +28°C° 0.5 mm 2 m/S 750 mmHg 85%
    19:00 +27°C° 0.5 mm 2 m/S 750 mmHg 90%
    20:00 +26°C° 0.1 mm 1 m/S 751 mmHg 91%
    21:00 +26°C° 0.1 mm 1 m/S 751 mmHg 92%
    22:00 +26°C° 0.1 mm 1 m/S 752 mmHg 93%
    23:00 +26°C° 0 mm 1 m/S 752 mmHg 93%

    17 November, Sonntag

    Zeit Temperatur Niederschläge Wind Luftdruck Luftfeuchtigkeit
    00:00 +23°C° 0 mm 0 m/S 751 mmHg 93%
    01:00 +23°C° 0 mm 0 m/S 751 mmHg 94%
    02:00 +23°C° 0 mm 0 m/S 750 mmHg 94%
    03:00 +23°C° 0 mm 0 m/S 750 mmHg 95%
    04:00 +23°C° 0 mm 0 m/S 750 mmHg 95%
    05:00 +23°C° 0 mm 0 m/S 750 mmHg 94%
    06:00 +23°C° 0 mm 0 m/S 751 mmHg 94%
    07:00 +24°C° 0 mm 0 m/S 751 mmHg 93%
    08:00 +25°C° 0 mm 0 m/S 752 mmHg 85%
    09:00 +29°C° 0 mm 1 m/S 752 mmHg 77%
    10:00 +31°C° 0 mm 1 m/S 752 mmHg 69%
    11:00 +31°C° 0.4 mm 1 m/S 752 mmHg 66%
    12:00 +32°C° 0.4 mm 2 m/S 751 mmHg 64%
    13:00 +34°C° 0.4 mm 2 m/S 750 mmHg 61%
    14:00 +32°C° 1.2 mm 2 m/S 750 mmHg 66%
    15:00 +31°C° 1.2 mm 3 m/S 749 mmHg 71%
    16:00 +30°C° 1.2 mm 3 m/S 749 mmHg 76%
    17:00 +29°C° 1 mm 2 m/S 749 mmHg 80%
    18:00 +28°C° 1 mm 2 m/S 750 mmHg 84%
    19:00 +27°C° 1 mm 2 m/S 751 mmHg 89%
    20:00 +26°C° 0.1 mm 1 m/S 751 mmHg 89%
    21:00 +26°C° 0.1 mm 1 m/S 752 mmHg 90%
    22:00 +26°C° 0.1 mm 1 m/S 752 mmHg 90%
    23:00 +26°C° 0 mm 1 m/S 752 mmHg 91%
    Mehr zeigen